カタログに戻る

OPS 4682 DEB

運用中PO
NORAD 55114·DEBRIS·🇺🇸 United States

打ち上げ Apr 3, 1965 から Vandenberg Space Force Base

Loading…

次のパス (今後24時間)

TLE

最新Source: Space-Track

元期: Sep 13, 2026, 18:38 UTC

1 55114U 65027HD  26256.77660681  .00000101  00000-0  32350-3 0  9996
2 55114  90.2700  20.3007 0032517 215.8550 144.0389 12.97421303559372

AllMySatでOPS 4682 DEBをリアルタイム追跡

Download on the App Store